2018-111X (43897 NORAD) Tracking and Keplerian Element Data

This shows tracking and keplerian element data for the satellite.

Feedback or suggestion? Click here.




ElementValue
Catalog43897
Name2018-111X
Epoch Orbit391
Epoch Day21.76278285
Epoch Year2019
RAAN290.9651
Inclination97.2996
Eccentricity0.0023774
Argument of Perigee154.3847
Mean Anonmoly205.8573
Mean Motion15.23543893
Decay Rate4.84E-06
L11 43897U 18111X 19021.76278285 .00000484 00000-0 23017-4 0 9994
L22 43897 97.2996 290.9651 0023774 154.3847 205.8573 15.23543893 3918

Live tracking and technical data element details for 2018-111X (NORAD 43897). 2018-111X can be tracked NOW for your location showing map with azimuth and elevation plus other details from your city location.

Track the satellite on the map from your city or location and see movement details for azimuth, elevation, latitude, longitude, range, height, and movement on the map or in text.







IsCatalogInMostPopularTable: catalog: 43897, numindb: 23
Update: records affected: 1



GetName: 43897 2018-111X

Hit Count: updated at: Wed, 23 Jan 2019 03:22:26 GMT